DMSP 5D-2 F13 DEB, 40508

Orbit data source: Space-Track

DMSP 5D-2 F13 DEB, 40508 is space debris in SSO originally from a launch on Fri, 24 Mar 1995 UTC launched from the Air Force Western Test Range (AFWTR). Debris objects in space refer to the collection of defunct objects orbiting the Earth. Examples of debris include non-operational satellites, rocket bodies, and fragments generated from explosions, collisions, or faulty payload assembly.

Loading next visibility...
Identifier
40508, 1995-015CU
Orbit
SSO
Country
Flag of USUS
Related business
Manufacturer
Unknown
Mission
Spacecraft
Bus & Motor
Unknown
Mass
Unknown
Launch date (UTC)
1995-03-24 (31 years ago)
Launch vehicle
Unknown
Launch site
Air Force Western Test Range (AFWTR)
Object type
Payload
Rocket body
Debris
Shape & HBR
Unknown shape, 0.1 m
Radar Cross Section
Medium (>0.1 m² and <1 m²)

Expand to show TLE details & history
Last TLE update: 10 hours ago

TLE from 10 hours ago
0 DMSP 5D-2 F13 DEB
1 40508U 95015CU  26220.00959615  .00001469  00000-0  67460-3 0  9990
2 40508  99.0244 242.1842 0044462 330.3774  29.4885 14.22342621585233
Epoch: 2026-08-08T00:13Z
TLE epoch observation values (Epoch: 2026-08-08T00:13:49.107Z)
Latitude
-0.00005°
Longitude
-77.7975°
Altitude
792.529 km
Speed
7.472 km/s
True Right ascension
16h 08m 44s
True Declination
0° 00' 00"
Sunlit
Object was in daylight at epoch
Visualization orbit readout
Latitude
Unknown
Longitude
Unknown
Altitude
Unknown
Speed
Unknown
Apparent Right ascension
Unknown
Apparent Declination
Unknown
Sunlit
N/A
Visualization observer readout
Local Sidereal Time
23:59:02
Azimuth
Unknown
Elevation
Unknown
Doppler factor
Unknown
Orbital elements
Apogee altitude
846.592 km
Perigee altitude
782.631 km
Semi-major axis
7,192.749 km
Eccentricity
0.00445
Inclination
99.0244°
RAAN
242.1842°
Arg. of periapsis
330.3774°
True anomaly
29.74052°
Mean anomaly
29.4885°
Eccentric anomaly
29.61439°
Mean motion
3.55796 °/min
Orbital period
101.18 mins
BSTAR
0.0006746
Loading maneuver chart data...
Computing Atmospheric mass density...

Documentation

Showing up to 5 results
|